owner,sensor,date,latitude,longitude,sea_water_turbidity,qcFlag 
NERRS,ioos:station:NOAA.NERRS:rkblhwq:1,2016-07-01T00:45:00Z,26.0257,-81.7332,1102.0,1111122 
NERRS,ioos:station:NOAA.NERRS:rkblhwq:1,2016-07-01T01:45:00Z,26.0257,-81.7332,1148.0,1111122 
NERRS,ioos:station:NOAA.NERRS:rkblhwq:1,2016-07-01T02:45:00Z,26.0257,-81.7332,1078.0,1111122 
NERRS,ioos:station:NOAA.NERRS:rkblhwq:1,2016-07-01T03:45:00Z,26.0257,-81.7332,1165.0,1111122 
NERRS,ioos:station:NOAA.NERRS:rkblhwq:1,2016-07-01T04:45:00Z,26.0257,-81.7332,891.0,1111122 
NERRS,ioos:station:NOAA.NERRS:rkblhwq:1,2016-07-01T05:45:00Z,26.0257,-81.7332,1214.0,1111122 
NERRS,ioos:station:NOAA.NERRS:rkblhwq:1,2016-07-01T06:45:00Z,26.0257,-81.7332,1199.0,1111122 
NERRS,ioos:station:NOAA.NERRS:rkblhwq:1,2016-07-01T07:45:00Z,26.0257,-81.7332,1197.0,1111122 
NERRS,ioos:station:NOAA.NERRS:rkblhwq:1,2016-07-01T08:45:00Z,26.0257,-81.7332,887.0,1111122 
NERRS,ioos:station:NOAA.NERRS:rkblhwq:1,2016-07-01T09:45:00Z,26.0257,-81.7332,623.0,1111122 
NERRS,ioos:station:NOAA.NERRS:rkblhwq:1,2016-07-01T10:45:00Z,26.0257,-81.7332,665.0,1111122 
NERRS,ioos:station:NOAA.NERRS:rkblhwq:1,2016-07-01T11:45:00Z,26.0257,-81.7332,653.0,1111122 
NERRS,ioos:station:NOAA.NERRS:rkblhwq:1,2016-07-01T12:45:00Z,26.0257,-81.7332,671.0,1111122 
NERRS,ioos:station:NOAA.NERRS:rkblhwq:1,2016-07-01T13:45:00Z,26.0257,-81.7332,784.0,1111122 
NERRS,ioos:station:NOAA.NERRS:rkblhwq:1,2016-07-01T14:45:00Z,26.0257,-81.7332,952.0,1111122 
NERRS,ioos:station:NOAA.NERRS:rkblhwq:1,2016-07-01T15:45:00Z,26.0257,-81.7332,577.0,1111122 
NERRS,ioos:station:NOAA.NERRS:rkblhwq:1,2016-07-01T16:45:00Z,26.0257,-81.7332,963.0,1111122 
NERRS,ioos:station:NOAA.NERRS:rkblhwq:1,2016-07-01T17:45:00Z,26.0257,-81.7332,1048.0,1111122 
NERRS,ioos:station:NOAA.NERRS:rkblhwq:1,2016-07-01T18:45:00Z,26.0257,-81.7332,671.0,1111122 
NERRS,ioos:station:NOAA.NERRS:rkblhwq:1,2016-07-01T19:45:00Z,26.0257,-81.7332,896.0,1111122 
NERRS,ioos:station:NOAA.NERRS:rkblhwq:1,2016-07-01T20:45:00Z,26.0257,-81.7332,934.0,1111122 
NERRS,ioos:station:NOAA.NERRS:rkblhwq:1,2016-07-01T21:45:00Z,26.0257,-81.7332,1020.0,1111122 
NERRS,ioos:station:NOAA.NERRS:rkblhwq:1,2016-07-01T22:45:00Z,26.0257,-81.7332,995.0,1111122 
NERRS,ioos:station:NOAA.NERRS:rkblhwq:1,2016-07-01T23:45:00Z,26.0257,-81.7332,1088.0,1111122 
NERRS,ioos:station:NOAA.NERRS:rkblhwq:1,2016-07-02T00:45:00Z,26.0257,-81.7332,812.0,1111122 
NERRS,ioos:station:NOAA.NERRS:rkblhwq:1,2016-07-02T01:45:00Z,26.0257,-81.7332,969.0,1111122 
NERRS,ioos:station:NOAA.NERRS:rkblhwq:1,2016-07-02T02:45:00Z,26.0257,-81.7332,1102.0,1111122 
NERRS,ioos:station:NOAA.NERRS:rkblhwq:1,2016-07-02T03:45:00Z,26.0257,-81.7332,1044.0,1111122 
NERRS,ioos:station:NOAA.NERRS:rkblhwq:1,2016-07-02T04:45:00Z,26.0257,-81.7332,1012.0,1111122 
NERRS,ioos:station:NOAA.NERRS:rkblhwq:1,2016-07-02T05:45:00Z,26.0257,-81.7332,1213.0,1111122 
NERRS,ioos:station:NOAA.NERRS:rkblhwq:1,2016-07-02T06:45:00Z,26.0257,-81.7332,932.0,1111122 
NERRS,ioos:station:NOAA.NERRS:rkblhwq:1,2016-07-02T07:45:00Z,26.0257,-81.7332,936.0,1111122 
NERRS,ioos:station:NOAA.NERRS:rkblhwq:1,2016-07-02T08:45:00Z,26.0257,-81.7332,1007.0,1111122 
NERRS,ioos:station:NOAA.NERRS:rkblhwq:1,2016-07-02T09:45:00Z,26.0257,-81.7332,1226.0,1111122 
NERRS,ioos:station:NOAA.NERRS:rkblhwq:1,2016-07-02T10:45:00Z,26.0257,-81.7332,834.0,1111122 
NERRS,ioos:station:NOAA.NERRS:rkblhwq:1,2016-07-02T11:45:00Z,26.0257,-81.7332,1012.0,1111122 
NERRS,ioos:station:NOAA.NERRS:rkblhwq:1,2016-07-02T12:45:00Z,26.0257,-81.7332,1179.0,1111122 
NERRS,ioos:station:NOAA.NERRS:rkblhwq:1,2016-07-02T13:45:00Z,26.0257,-81.7332,1033.0,1111122 
NERRS,ioos:station:NOAA.NERRS:rkblhwq:1,2016-07-02T14:45:00Z,26.0257,-81.7332,1248.0,1111122 
NERRS,ioos:station:NOAA.NERRS:rkblhwq:1,2016-07-02T15:45:00Z,26.0257,-81.7332,926.0,1111122 
NERRS,ioos:station:NOAA.NERRS:rkblhwq:1,2016-07-02T16:45:00Z,26.0257,-81.7332,1090.0,1111122 
NERRS,ioos:station:NOAA.NERRS:rkblhwq:1,2016-07-02T18:45:00Z,26.0257,-81.7332,1042.0,1111122 
NERRS,ioos:station:NOAA.NERRS:rkblhwq:1,2016-07-02T19:45:00Z,26.0257,-81.7332,1152.0,1111122 
NERRS,ioos:station:NOAA.NERRS:rkblhwq:1,2016-07-02T20:45:00Z,26.0257,-81.7332,1235.0,1111122 
NERRS,ioos:station:NOAA.NERRS:rkblhwq:1,2016-07-02T21:45:00Z,26.0257,-81.7332,1245.0,1111122 
NERRS,ioos:station:NOAA.NERRS:rkblhwq:1,2016-07-02T22:45:00Z,26.0257,-81.7332,1253.0,1111122 
NERRS,ioos:station:NOAA.NERRS:rkblhwq:1,2016-07-02T23:45:00Z,26.0257,-81.7332,1208.0,1111122 
NERRS,ioos:station:NOAA.NERRS:rkblhwq:1,2016-07-03T00:45:00Z,26.0257,-81.7332,1249.0,1111122 
NERRS,ioos:station:NOAA.NERRS:rkblhwq:1,2016-07-03T01:45:00Z,26.0257,-81.7332,1248.0,1111122 
NERRS,ioos:station:NOAA.NERRS:rkblhwq:1,2016-07-03T02:45:00Z,26.0257,-81.7332,1246.0,1111122 
NERRS,ioos:station:NOAA.NERRS:rkblhwq:1,2016-07-03T03:45:00Z,26.0257,-81.7332,1241.0,1111122 
NERRS,ioos:station:NOAA.NERRS:rkblhwq:1,2016-07-03T04:45:00Z,26.0257,-81.7332,1240.0,1111122 
NERRS,ioos:station:NOAA.NERRS:rkblhwq:1,2016-07-03T05:45:00Z,26.0257,-81.7332,1238.0,1111122 
NERRS,ioos:station:NOAA.NERRS:rkblhwq:1,2016-07-03T06:45:00Z,26.0257,-81.7332,1244.0,1111122 
NERRS,ioos:station:NOAA.NERRS:rkblhwq:1,2016-07-03T07:45:00Z,26.0257,-81.7332,1221.0,1111122 
NERRS,ioos:station:NOAA.NERRS:rkblhwq:1,2016-07-03T08:45:00Z,26.0257,-81.7332,1229.0,1111122 
NERRS,ioos:station:NOAA.NERRS:rkblhwq:1,2016-07-03T09:45:00Z,26.0257,-81.7332,1219.0,1111122 
NERRS,ioos:station:NOAA.NERRS:rkblhwq:1,2016-07-03T10:45:00Z,26.0257,-81.7332,1236.0,1111122 
NERRS,ioos:station:NOAA.NERRS:rkblhwq:1,2016-07-03T11:45:00Z,26.0257,-81.7332,1237.0,1111122 
NERRS,ioos:station:NOAA.NERRS:rkblhwq:1,2016-07-03T12:45:00Z,26.0257,-81.7332,1235.0,1111122 
NERRS,ioos:station:NOAA.NERRS:rkblhwq:1,2016-07-03T13:45:00Z,26.0257,-81.7332,1193.0,1111122 
NERRS,ioos:station:NOAA.NERRS:rkblhwq:1,2016-07-03T14:45:00Z,26.0257,-81.7332,1237.0,1111122 
NERRS,ioos:station:NOAA.NERRS:rkblhwq:1,2016-07-03T15:45:00Z,26.0257,-81.7332,1243.0,1111122 
NERRS,ioos:station:NOAA.NERRS:rkblhwq:1,2016-07-03T16:45:00Z,26.0257,-81.7332,1212.0,1111122 
NERRS,ioos:station:NOAA.NERRS:rkblhwq:1,2016-07-03T17:45:00Z,26.0257,-81.7332,1117.0,1111122 
NERRS,ioos:station:NOAA.NERRS:rkblhwq:1,2016-07-03T18:45:00Z,26.0257,-81.7332,1222.0,1111122 
NERRS,ioos:station:NOAA.NERRS:rkblhwq:1,2016-07-03T19:45:00Z,26.0257,-81.7332,1248.0,1111122 
NERRS,ioos:station:NOAA.NERRS:rkblhwq:1,2016-07-03T20:45:00Z,26.0257,-81.7332,1241.0,1111122 
NERRS,ioos:station:NOAA.NERRS:rkblhwq:1,2016-07-03T21:45:00Z,26.0257,-81.7332,1252.0,1111122 
NERRS,ioos:station:NOAA.NERRS:rkblhwq:1,2016-07-03T22:45:00Z,26.0257,-81.7332,1252.0,1111122 
NERRS,ioos:station:NOAA.NERRS:rkblhwq:1,2016-07-03T23:45:00Z,26.0257,-81.7332,1251.0,1111122 
NERRS,ioos:station:NOAA.NERRS:rkblhwq:1,2016-07-04T00:45:00Z,26.0257,-81.7332,1249.0,1111122 
NERRS,ioos:station:NOAA.NERRS:rkblhwq:1,2016-07-04T01:45:00Z,26.0257,-81.7332,1247.0,1111122 
NERRS,ioos:station:NOAA.NERRS:rkblhwq:1,2016-07-04T02:45:00Z,26.0257,-81.7332,1247.0,1111122 
NERRS,ioos:station:NOAA.NERRS:rkblhwq:1,2016-07-04T03:45:00Z,26.0257,-81.7332,1246.0,1111122 
NERRS,ioos:station:NOAA.NERRS:rkblhwq:1,2016-07-04T04:45:00Z,26.0257,-81.7332,1245.0,1111122 
NERRS,ioos:station:NOAA.NERRS:rkblhwq:1,2016-07-04T05:45:00Z,26.0257,-81.7332,1244.0,1111122 
NERRS,ioos:station:NOAA.NERRS:rkblhwq:1,2016-07-04T06:45:00Z,26.0257,-81.7332,1236.0,1111122 
NERRS,ioos:station:NOAA.NERRS:rkblhwq:1,2016-07-04T07:45:00Z,26.0257,-81.7332,1243.0,1111122 
NERRS,ioos:station:NOAA.NERRS:rkblhwq:1,2016-07-04T08:45:00Z,26.0257,-81.7332,1241.0,1111122 
NERRS,ioos:station:NOAA.NERRS:rkblhwq:1,2016-07-04T09:45:00Z,26.0257,-81.7332,1240.0,1111122 
NERRS,ioos:station:NOAA.NERRS:rkblhwq:1,2016-07-04T10:45:00Z,26.0257,-81.7332,1239.0,1111122 
NERRS,ioos:station:NOAA.NERRS:rkblhwq:1,2016-07-04T11:45:00Z,26.0257,-81.7332,1235.0,1111122 
NERRS,ioos:station:NOAA.NERRS:rkblhwq:1,2016-07-04T12:45:00Z,26.0257,-81.7332,1237.0,1111122 
NERRS,ioos:station:NOAA.NERRS:rkblhwq:1,2016-07-04T13:45:00Z,26.0257,-81.7332,1240.0,1111122 
NERRS,ioos:station:NOAA.NERRS:rkblhwq:1,2016-07-04T14:45:00Z,26.0257,-81.7332,1242.0,1111122 
NERRS,ioos:station:NOAA.NERRS:rkblhwq:1,2016-07-04T15:45:00Z,26.0257,-81.7332,1244.0,1111122 
NERRS,ioos:station:NOAA.NERRS:rkblhwq:1,2016-07-04T16:45:00Z,26.0257,-81.7332,1247.0,1111122 
NERRS,ioos:station:NOAA.NERRS:rkblhwq:1,2016-07-04T17:45:00Z,26.0257,-81.7332,1249.0,1111122 
NERRS,ioos:station:NOAA.NERRS:rkblhwq:1,2016-07-04T18:45:00Z,26.0257,-81.7332,1250.0,1111122 
NERRS,ioos:station:NOAA.NERRS:rkblhwq:1,2016-07-04T19:45:00Z,26.0257,-81.7332,1249.0,1111122 
NERRS,ioos:station:NOAA.NERRS:rkblhwq:1,2016-07-04T20:45:00Z,26.0257,-81.7332,1250.0,1111122 
NERRS,ioos:station:NOAA.NERRS:rkblhwq:1,2016-07-04T21:45:00Z,26.0257,-81.7332,1251.0,1111122 
NERRS,ioos:station:NOAA.NERRS:rkblhwq:1,2016-07-04T22:45:00Z,26.0257,-81.7332,1253.0,1111122 
NERRS,ioos:station:NOAA.NERRS:rkblhwq:1,2016-07-04T23:45:00Z,26.0257,-81.7332,1250.0,1111122 
NERRS,ioos:station:NOAA.NERRS:rkblhwq:1,2016-07-05T00:45:00Z,26.0257,-81.7332,1239.0,1111122 
NERRS,ioos:station:NOAA.NERRS:rkblhwq:1,2016-07-05T01:45:00Z,26.0257,-81.7332,1231.0,1111122 
NERRS,ioos:station:NOAA.NERRS:rkblhwq:1,2016-07-05T02:45:00Z,26.0257,-81.7332,1226.0,1111122 
NERRS,ioos:station:NOAA.NERRS:rkblhwq:1,2016-07-05T03:45:00Z,26.0257,-81.7332,1231.0,1111122 
NERRS,ioos:station:NOAA.NERRS:rkblhwq:1,2016-07-05T04:45:00Z,26.0257,-81.7332,1232.0,1111122 
NERRS,ioos:station:NOAA.NERRS:rkblhwq:1,2016-07-05T05:45:00Z,26.0257,-81.7332,1231.0,1111122 
NERRS,ioos:station:NOAA.NERRS:rkblhwq:1,2016-07-05T06:45:00Z,26.0257,-81.7332,1232.0,1111122 
NERRS,ioos:station:NOAA.NERRS:rkblhwq:1,2016-07-05T07:45:00Z,26.0257,-81.7332,1232.0,1111122 
NERRS,ioos:station:NOAA.NERRS:rkblhwq:1,2016-07-05T08:45:00Z,26.0257,-81.7332,1230.0,1111122 
NERRS,ioos:station:NOAA.NERRS:rkblhwq:1,2016-07-05T09:45:00Z,26.0257,-81.7332,1230.0,1111122 
NERRS,ioos:station:NOAA.NERRS:rkblhwq:1,2016-07-05T10:45:00Z,26.0257,-81.7332,1232.0,1111122 
NERRS,ioos:station:NOAA.NERRS:rkblhwq:1,2016-07-05T11:45:00Z,26.0257,-81.7332,1231.0,1111122 
NERRS,ioos:station:NOAA.NERRS:rkblhwq:1,2016-07-05T12:45:00Z,26.0257,-81.7332,1222.0,1111122 
NERRS,ioos:station:NOAA.NERRS:rkblhwq:1,2016-07-05T13:45:00Z,26.0257,-81.7332,1229.0,1111122 
NERRS,ioos:station:NOAA.NERRS:rkblhwq:1,2016-07-05T14:45:00Z,26.0257,-81.7332,1233.0,1111122 
NERRS,ioos:station:NOAA.NERRS:rkblhwq:1,2016-07-05T15:45:00Z,26.0257,-81.7332,1234.0,1111122 
NERRS,ioos:station:NOAA.NERRS:rkblhwq:1,2016-07-05T16:45:00Z,26.0257,-81.7332,1237.0,1111122 
NERRS,ioos:station:NOAA.NERRS:rkblhwq:1,2016-07-05T17:45:00Z,26.0257,-81.7332,1241.0,1111122 
NERRS,ioos:station:NOAA.NERRS:rkblhwq:1,2016-07-05T18:45:00Z,26.0257,-81.7332,1245.0,1111122 
NERRS,ioos:station:NOAA.NERRS:rkblhwq:1,2016-07-05T20:45:00Z,26.0257,-81.7332,1246.0,1111122 
NERRS,ioos:station:NOAA.NERRS:rkblhwq:1,2016-07-05T21:45:00Z,26.0257,-81.7332,1149.0,1111122 
NERRS,ioos:station:NOAA.NERRS:rkblhwq:1,2016-07-05T22:45:00Z,26.0257,-81.7332,1071.0,1111122 
NERRS,ioos:station:NOAA.NERRS:rkblhwq:1,2016-07-05T23:45:00Z,26.0257,-81.7332,1218.0,1111122 
NERRS,ioos:station:NOAA.NERRS:rkblhwq:1,2016-07-06T00:45:00Z,26.0257,-81.7332,1125.0,1111122 
NERRS,ioos:station:NOAA.NERRS:rkblhwq:1,2016-07-06T01:45:00Z,26.0257,-81.7332,1084.0,1111122 
NERRS,ioos:station:NOAA.NERRS:rkblhwq:1,2016-07-06T02:45:00Z,26.0257,-81.7332,1227.0,1111122 
NERRS,ioos:station:NOAA.NERRS:rkblhwq:1,2016-07-06T03:45:00Z,26.0257,-81.7332,1122.0,1111122 
NERRS,ioos:station:NOAA.NERRS:rkblhwq:1,2016-07-06T04:45:00Z,26.0257,-81.7332,1102.0,1111122 
NERRS,ioos:station:NOAA.NERRS:rkblhwq:1,2016-07-06T05:45:00Z,26.0257,-81.7332,993.0,1111122 
NERRS,ioos:station:NOAA.NERRS:rkblhwq:1,2016-07-06T06:45:00Z,26.0257,-81.7332,1029.0,1111122 
NERRS,ioos:station:NOAA.NERRS:rkblhwq:1,2016-07-06T07:45:00Z,26.0257,-81.7332,1115.0,1111122 
NERRS,ioos:station:NOAA.NERRS:rkblhwq:1,2016-07-06T08:45:00Z,26.0257,-81.7332,1208.0,1111122 
NERRS,ioos:station:NOAA.NERRS:rkblhwq:1,2016-07-06T09:45:00Z,26.0257,-81.7332,1243.0,1111122 
NERRS,ioos:station:NOAA.NERRS:rkblhwq:1,2016-07-06T10:45:00Z,26.0257,-81.7332,1232.0,1111122 
NERRS,ioos:station:NOAA.NERRS:rkblhwq:1,2016-07-06T11:45:00Z,26.0257,-81.7332,1241.0,1111122 
NERRS,ioos:station:NOAA.NERRS:rkblhwq:1,2016-07-06T12:45:00Z,26.0257,-81.7332,1233.0,1111122 
NERRS,ioos:station:NOAA.NERRS:rkblhwq:1,2016-07-06T13:45:00Z,26.0257,-81.7332,937.0,1111122 
NERRS,ioos:station:NOAA.NERRS:rkblhwq:1,2016-07-06T14:45:00Z,26.0257,-81.7332,895.0,1111122 
NERRS,ioos:station:NOAA.NERRS:rkblhwq:1,2016-07-06T16:45:00Z,26.0257,-81.7332,8.0,1111122 
NERRS,ioos:station:NOAA.NERRS:rkblhwq:1,2016-07-06T17:45:00Z,26.0257,-81.7332,8.0,1111122 
NERRS,ioos:station:NOAA.NERRS:rkblhwq:1,2016-07-06T18:45:00Z,26.0257,-81.7332,6.0,1111122 
NERRS,ioos:station:NOAA.NERRS:rkblhwq:1,2016-07-06T19:45:00Z,26.0257,-81.7332,5.0,1111122 
NERRS,ioos:station:NOAA.NERRS:rkblhwq:1,2016-07-06T20:45:00Z,26.0257,-81.7332,9.0,1111122 
NERRS,ioos:station:NOAA.NERRS:rkblhwq:1,2016-07-06T21:45:00Z,26.0257,-81.7332,9.0,1111122 
NERRS,ioos:station:NOAA.NERRS:rkblhwq:1,2016-07-06T22:45:00Z,26.0257,-81.7332,13.0,1111122 
NERRS,ioos:station:NOAA.NERRS:rkblhwq:1,2016-07-06T23:45:00Z,26.0257,-81.7332,14.0,1111122 
NERRS,ioos:station:NOAA.NERRS:rkblhwq:1,2016-07-07T00:45:00Z,26.0257,-81.7332,17.0,1111122 
NERRS,ioos:station:NOAA.NERRS:rkblhwq:1,2016-07-07T01:45:00Z,26.0257,-81.7332,12.0,1111122 
NERRS,ioos:station:NOAA.NERRS:rkblhwq:1,2016-07-07T02:45:00Z,26.0257,-81.7332,10.0,1111122 
NERRS,ioos:station:NOAA.NERRS:rkblhwq:1,2016-07-07T03:45:00Z,26.0257,-81.7332,7.0,1111122 
NERRS,ioos:station:NOAA.NERRS:rkblhwq:1,2016-07-07T04:45:00Z,26.0257,-81.7332,8.0,1111122 
NERRS,ioos:station:NOAA.NERRS:rkblhwq:1,2016-07-07T05:45:00Z,26.0257,-81.7332,8.0,1111122 
NERRS,ioos:station:NOAA.NERRS:rkblhwq:1,2016-07-07T06:45:00Z,26.0257,-81.7332,8.0,1111122 
NERRS,ioos:station:NOAA.NERRS:rkblhwq:1,2016-07-07T07:45:00Z,26.0257,-81.7332,7.0,1111122 
NERRS,ioos:station:NOAA.NERRS:rkblhwq:1,2016-07-07T08:45:00Z,26.0257,-81.7332,6.0,1111122 
NERRS,ioos:station:NOAA.NERRS:rkblhwq:1,2016-07-07T09:45:00Z,26.0257,-81.7332,8.0,1111122 
NERRS,ioos:station:NOAA.NERRS:rkblhwq:1,2016-07-07T10:45:00Z,26.0257,-81.7332,6.0,1111122 
NERRS,ioos:station:NOAA.NERRS:rkblhwq:1,2016-07-07T11:45:00Z,26.0257,-81.7332,6.0,1111122 
NERRS,ioos:station:NOAA.NERRS:rkblhwq:1,2016-07-07T12:45:00Z,26.0257,-81.7332,7.0,1111122 
NERRS,ioos:station:NOAA.NERRS:rkblhwq:1,2016-07-07T13:45:00Z,26.0257,-81.7332,7.0,1111122 
NERRS,ioos:station:NOAA.NERRS:rkblhwq:1,2016-07-07T14:45:00Z,26.0257,-81.7332,7.0,1111122 
NERRS,ioos:station:NOAA.NERRS:rkblhwq:1,2016-07-07T15:45:00Z,26.0257,-81.7332,7.0,1111122 
NERRS,ioos:station:NOAA.NERRS:rkblhwq:1,2016-07-07T16:45:00Z,26.0257,-81.7332,7.0,1111122 
NERRS,ioos:station:NOAA.NERRS:rkblhwq:1,2016-07-07T17:45:00Z,26.0257,-81.7332,9.0,1111122 
NERRS,ioos:station:NOAA.NERRS:rkblhwq:1,2016-07-07T18:45:00Z,26.0257,-81.7332,9.0,1111122 
NERRS,ioos:station:NOAA.NERRS:rkblhwq:1,2016-07-07T19:45:00Z,26.0257,-81.7332,7.0,1111122 
NERRS,ioos:station:NOAA.NERRS:rkblhwq:1,2016-07-07T20:45:00Z,26.0257,-81.7332,8.0,1111122 
NERRS,ioos:station:NOAA.NERRS:rkblhwq:1,2016-07-07T21:45:00Z,26.0257,-81.7332,10.0,1111122 
NERRS,ioos:station:NOAA.NERRS:rkblhwq:1,2016-07-07T22:45:00Z,26.0257,-81.7332,12.0,1111122 
NERRS,ioos:station:NOAA.NERRS:rkblhwq:1,2016-07-07T23:45:00Z,26.0257,-81.7332,13.0,1111122 
NERRS,ioos:station:NOAA.NERRS:rkblhwq:1,2016-07-08T00:45:00Z,26.0257,-81.7332,17.0,1111122 
NERRS,ioos:station:NOAA.NERRS:rkblhwq:1,2016-07-08T01:45:00Z,26.0257,-81.7332,16.0,1111122 
NERRS,ioos:station:NOAA.NERRS:rkblhwq:1,2016-07-08T02:45:00Z,26.0257,-81.7332,10.0,1111122 
NERRS,ioos:station:NOAA.NERRS:rkblhwq:1,2016-07-08T03:45:00Z,26.0257,-81.7332,7.0,1111122 
NERRS,ioos:station:NOAA.NERRS:rkblhwq:1,2016-07-08T04:45:00Z,26.0257,-81.7332,8.0,1111122 
NERRS,ioos:station:NOAA.NERRS:rkblhwq:1,2016-07-08T05:45:00Z,26.0257,-81.7332,8.0,1111122 
NERRS,ioos:station:NOAA.NERRS:rkblhwq:1,2016-07-08T06:45:00Z,26.0257,-81.7332,8.0,1111122 
NERRS,ioos:station:NOAA.NERRS:rkblhwq:1,2016-07-08T07:45:00Z,26.0257,-81.7332,8.0,1111122 
NERRS,ioos:station:NOAA.NERRS:rkblhwq:1,2016-07-08T08:45:00Z,26.0257,-81.7332,7.0,1111122 
NERRS,ioos:station:NOAA.NERRS:rkblhwq:1,2016-07-08T09:45:00Z,26.0257,-81.7332,6.0,1111122 
NERRS,ioos:station:NOAA.NERRS:rkblhwq:1,2016-07-08T10:45:00Z,26.0257,-81.7332,7.0,1111122 
NERRS,ioos:station:NOAA.NERRS:rkblhwq:1,2016-07-08T11:45:00Z,26.0257,-81.7332,7.0,1111122 
NERRS,ioos:station:NOAA.NERRS:rkblhwq:1,2016-07-08T12:45:00Z,26.0257,-81.7332,7.0,1111122 
NERRS,ioos:station:NOAA.NERRS:rkblhwq:1,2016-07-08T13:45:00Z,26.0257,-81.7332,8.0,1111122 
NERRS,ioos:station:NOAA.NERRS:rkblhwq:1,2016-07-08T14:45:00Z,26.0257,-81.7332,8.0,1111122 
NERRS,ioos:station:NOAA.NERRS:rkblhwq:1,2016-07-08T15:45:00Z,26.0257,-81.7332,7.0,1111122 
NERRS,ioos:station:NOAA.NERRS:rkblhwq:1,2016-07-08T16:45:00Z,26.0257,-81.7332,7.0,1111122 
NERRS,ioos:station:NOAA.NERRS:rkblhwq:1,2016-07-08T17:45:00Z,26.0257,-81.7332,8.0,1111122 
NERRS,ioos:station:NOAA.NERRS:rkblhwq:1,2016-07-08T18:45:00Z,26.0257,-81.7332,9.0,1111122 
NERRS,ioos:station:NOAA.NERRS:rkblhwq:1,2016-07-08T19:45:00Z,26.0257,-81.7332,9.0,1111122 
NERRS,ioos:station:NOAA.NERRS:rkblhwq:1,2016-07-08T20:45:00Z,26.0257,-81.7332,7.0,1111122 
NERRS,ioos:station:NOAA.NERRS:rkblhwq:1,2016-07-08T21:45:00Z,26.0257,-81.7332,10.0,1111122 
NERRS,ioos:station:NOAA.NERRS:rkblhwq:1,2016-07-08T22:45:00Z,26.0257,-81.7332,13.0,1111122 
NERRS,ioos:station:NOAA.NERRS:rkblhwq:1,2016-07-08T23:45:00Z,26.0257,-81.7332,9.0,1111122 
NERRS,ioos:station:NOAA.NERRS:rkblhwq:1,2016-07-09T00:45:00Z,26.0257,-81.7332,11.0,1111122 
NERRS,ioos:station:NOAA.NERRS:rkblhwq:1,2016-07-09T01:45:00Z,26.0257,-81.7332,13.0,1111122 
NERRS,ioos:station:NOAA.NERRS:rkblhwq:1,2016-07-09T02:45:00Z,26.0257,-81.7332,12.0,1111122 
NERRS,ioos:station:NOAA.NERRS:rkblhwq:1,2016-07-09T03:45:00Z,26.0257,-81.7332,9.0,1111122 
NERRS,ioos:station:NOAA.NERRS:rkblhwq:1,2016-07-09T04:45:00Z,26.0257,-81.7332,6.0,1111122 
NERRS,ioos:station:NOAA.NERRS:rkblhwq:1,2016-07-09T05:45:00Z,26.0257,-81.7332,7.0,1111122 
NERRS,ioos:station:NOAA.NERRS:rkblhwq:1,2016-07-09T06:45:00Z,26.0257,-81.7332,8.0,1111122 
NERRS,ioos:station:NOAA.NERRS:rkblhwq:1,2016-07-09T07:45:00Z,26.0257,-81.7332,7.0,1111122 
NERRS,ioos:station:NOAA.NERRS:rkblhwq:1,2016-07-09T08:45:00Z,26.0257,-81.7332,7.0,1111122 
NERRS,ioos:station:NOAA.NERRS:rkblhwq:1,2016-07-09T12:45:00Z,26.0257,-81.7332,7.0,1111122 
NERRS,ioos:station:NOAA.NERRS:rkblhwq:1,2016-07-09T13:45:00Z,26.0257,-81.7332,7.0,1111122 
NERRS,ioos:station:NOAA.NERRS:rkblhwq:1,2016-07-09T14:45:00Z,26.0257,-81.7332,7.0,1111122 
NERRS,ioos:station:NOAA.NERRS:rkblhwq:1,2016-07-09T15:45:00Z,26.0257,-81.7332,6.0,1111122 
NERRS,ioos:station:NOAA.NERRS:rkblhwq:1,2016-07-09T16:45:00Z,26.0257,-81.7332,6.0,1111122 
NERRS,ioos:station:NOAA.NERRS:rkblhwq:1,2016-07-09T17:45:00Z,26.0257,-81.7332,7.0,1111122 
NERRS,ioos:station:NOAA.NERRS:rkblhwq:1,2016-07-09T18:45:00Z,26.0257,-81.7332,7.0,1111122 
NERRS,ioos:station:NOAA.NERRS:rkblhwq:1,2016-07-09T19:45:00Z,26.0257,-81.7332,8.0,1111122 
NERRS,ioos:station:NOAA.NERRS:rkblhwq:1,2016-07-09T20:45:00Z,26.0257,-81.7332,8.0,1111122 
NERRS,ioos:station:NOAA.NERRS:rkblhwq:1,2016-07-09T21:45:00Z,26.0257,-81.7332,8.0,1111122 
NERRS,ioos:station:NOAA.NERRS:rkblhwq:1,2016-07-09T22:45:00Z,26.0257,-81.7332,8.0,1111122 
NERRS,ioos:station:NOAA.NERRS:rkblhwq:1,2016-07-09T23:45:00Z,26.0257,-81.7332,14.0,1111122 
NERRS,ioos:station:NOAA.NERRS:rkblhwq:1,2016-07-10T00:45:00Z,26.0257,-81.7332,12.0,1111122 
NERRS,ioos:station:NOAA.NERRS:rkblhwq:1,2016-07-10T01:45:00Z,26.0257,-81.7332,12.0,1111122 
NERRS,ioos:station:NOAA.NERRS:rkblhwq:1,2016-07-10T02:45:00Z,26.0257,-81.7332,10.0,1111122 
NERRS,ioos:station:NOAA.NERRS:rkblhwq:1,2016-07-10T03:45:00Z,26.0257,-81.7332,9.0,1111122 
NERRS,ioos:station:NOAA.NERRS:rkblhwq:1,2016-07-10T13:45:00Z,26.0257,-81.7332,8.0,1111122 
NERRS,ioos:station:NOAA.NERRS:rkblhwq:1,2016-07-10T14:45:00Z,26.0257,-81.7332,8.0,1111122 
NERRS,ioos:station:NOAA.NERRS:rkblhwq:1,2016-07-10T15:45:00Z,26.0257,-81.7332,6.0,1111122 
NERRS,ioos:station:NOAA.NERRS:rkblhwq:1,2016-07-10T16:45:00Z,26.0257,-81.7332,6.0,1111122 
NERRS,ioos:station:NOAA.NERRS:rkblhwq:1,2016-07-10T17:45:00Z,26.0257,-81.7332,7.0,1111122 
NERRS,ioos:station:NOAA.NERRS:rkblhwq:1,2016-07-10T18:45:00Z,26.0257,-81.7332,8.0,1111122 
NERRS,ioos:station:NOAA.NERRS:rkblhwq:1,2016-07-10T19:45:00Z,26.0257,-81.7332,13.0,1111122 
NERRS,ioos:station:NOAA.NERRS:rkblhwq:1,2016-07-10T20:45:00Z,26.0257,-81.7332,8.0,1111122 
NERRS,ioos:station:NOAA.NERRS:rkblhwq:1,2016-07-10T21:45:00Z,26.0257,-81.7332,8.0,1111122 
NERRS,ioos:station:NOAA.NERRS:rkblhwq:1,2016-07-10T22:45:00Z,26.0257,-81.7332,8.0,1111122 
NERRS,ioos:station:NOAA.NERRS:rkblhwq:1,2016-07-10T23:45:00Z,26.0257,-81.7332,9.0,1111122 
NERRS,ioos:station:NOAA.NERRS:rkblhwq:1,2016-07-11T00:45:00Z,26.0257,-81.7332,10.0,1111122 
NERRS,ioos:station:NOAA.NERRS:rkblhwq:1,2016-07-11T12:45:00Z,26.0257,-81.7332,5.0,1111122 
NERRS,ioos:station:NOAA.NERRS:rkblhwq:1,2016-07-11T13:45:00Z,26.0257,-81.7332,6.0,1111122 
NERRS,ioos:station:NOAA.NERRS:rkblhwq:1,2016-07-11T14:45:00Z,26.0257,-81.7332,7.0,1111122 
NERRS,ioos:station:NOAA.NERRS:rkblhwq:1,2016-07-11T15:45:00Z,26.0257,-81.7332,8.0,1111122 
NERRS,ioos:station:NOAA.NERRS:rkblhwq:1,2016-07-11T16:45:00Z,26.0257,-81.7332,7.0,1111122 
NERRS,ioos:station:NOAA.NERRS:rkblhwq:1,2016-07-11T17:45:00Z,26.0257,-81.7332,6.0,1111122 
NERRS,ioos:station:NOAA.NERRS:rkblhwq:1,2016-07-11T18:45:00Z,26.0257,-81.7332,7.0,1111122 
NERRS,ioos:station:NOAA.NERRS:rkblhwq:1,2016-07-12T15:45:00Z,26.0257,-81.7332,6.0,1111122 
NERRS,ioos:station:NOAA.NERRS:rkblhwq:1,2016-07-12T16:45:00Z,26.0257,-81.7332,7.0,1111122 
NERRS,ioos:station:NOAA.NERRS:rkblhwq:1,2016-07-12T17:45:00Z,26.0257,-81.7332,7.0,1111122 
NERRS,ioos:station:NOAA.NERRS:rkblhwq:1,2016-07-12T18:45:00Z,26.0257,-81.7332,7.0,1111122 
NERRS,ioos:station:NOAA.NERRS:rkblhwq:1,2016-07-13T11:45:00Z,26.0257,-81.7332,7.0,1111122 
NERRS,ioos:station:NOAA.NERRS:rkblhwq:1,2016-07-13T12:45:00Z,26.0257,-81.7332,8.0,1111122 
NERRS,ioos:station:NOAA.NERRS:rkblhwq:1,2016-07-13T13:45:00Z,26.0257,-81.7332,7.0,1111122 
NERRS,ioos:station:NOAA.NERRS:rkblhwq:1,2016-07-13T14:45:00Z,26.0257,-81.7332,8.0,1111122 
NERRS,ioos:station:NOAA.NERRS:rkblhwq:1,2016-07-13T15:45:00Z,26.0257,-81.7332,9.0,1111122 
NERRS,ioos:station:NOAA.NERRS:rkblhwq:1,2016-07-13T16:45:00Z,26.0257,-81.7332,8.0,1111122 
NERRS,ioos:station:NOAA.NERRS:rkblhwq:1,2016-07-13T17:45:00Z,26.0257,-81.7332,10.0,1111122 
NERRS,ioos:station:NOAA.NERRS:rkblhwq:1,2016-07-13T18:45:00Z,26.0257,-81.7332,11.0,1111122 
NERRS,ioos:station:NOAA.NERRS:rkblhwq:1,2016-07-14T12:45:00Z,26.0257,-81.7332,8.0,1111122 
NERRS,ioos:station:NOAA.NERRS:rkblhwq:1,2016-07-14T13:45:00Z,26.0257,-81.7332,6.0,1111122 
NERRS,ioos:station:NOAA.NERRS:rkblhwq:1,2016-07-14T14:45:00Z,26.0257,-81.7332,4.0,1111122 
NERRS,ioos:station:NOAA.NERRS:rkblhwq:1,2016-07-14T15:45:00Z,26.0257,-81.7332,7.0,1111122 
NERRS,ioos:station:NOAA.NERRS:rkblhwq:1,2016-07-14T16:45:00Z,26.0257,-81.7332,9.0,1111122 
NERRS,ioos:station:NOAA.NERRS:rkblhwq:1,2016-07-14T19:45:00Z,26.0257,-81.7332,11.0,1111122 
NERRS,ioos:station:NOAA.NERRS:rkblhwq:1,2016-07-15T12:45:00Z,26.0257,-81.7332,8.0,1111122 
NERRS,ioos:station:NOAA.NERRS:rkblhwq:1,2016-07-15T13:45:00Z,26.0257,-81.7332,8.0,1111122 
NERRS,ioos:station:NOAA.NERRS:rkblhwq:1,2016-07-15T15:45:00Z,26.0257,-81.7332,4.0,1111122 
NERRS,ioos:station:NOAA.NERRS:rkblhwq:1,2016-07-15T16:45:00Z,26.0257,-81.7332,6.0,1111122 
NERRS,ioos:station:NOAA.NERRS:rkblhwq:1,2016-07-15T17:45:00Z,26.0257,-81.7332,10.0,1111122 
NERRS,ioos:station:NOAA.NERRS:rkblhwq:1,2016-07-15T18:45:00Z,26.0257,-81.7332,9.0,1111122 
NERRS,ioos:station:NOAA.NERRS:rkblhwq:1,2016-07-15T19:45:00Z,26.0257,-81.7332,17.0,1111122 